Zurück zum Katalog

STARLINK-4775

AktivKommunikationVLEO
NORAD 53934·PAYLOAD·🇺🇸 United States

Gestartet Sep 24, 2022 von Cape Canaveral Space Force Station

Loading…

Nächste Überflüge (nächste 24 Stunden)

TLE

AktuellSource: CelesTrak SupGP

Epoche: Sep 15, 2026, 01:49 UTC

1 53934C 22119BA  26258.07618056 -.00021148  00000+0 -13264-2 0  2588
2 53934  53.1576 168.3531 0001618  88.5744 338.9366 15.08839012    18

Verfolge STARLINK-4775 in Echtzeit mit AllMySat

Download on the App Store